Flag for Spain Weather past 2 weeks in Alicante, Spain

Now
68 °F

Passing clouds.


Feels Like: 68 °F
Forecast: 51 / 60 °F
Wind: 5 mph from North

Location: Alicante / El Altet

Current Time: Feb 27, 2015 at 7:02:13 PM

Latest Report: Feb 27, 2015 at 6:30 PM


Visibility: N/A

Pressure: 30.07 "Hg

Humidity: 20%

Dew point: 25 °F

Location of AlicanteLocation

Historic Weather in Alicante — Graph

°F

Alicante temperature yesterday

Maximum temperature yesterday: 72 °F (at 1:00 PM)
Minimum temperature yesterday: 55 °F (at 7:30 AM)
Average temperature yesterday: 62 °F

Past Weeks' High & Low Weather Summary

 TemperatureHumidityPressure
High72 °F (Feb 26, 1:00 PM)100% (Feb 12, 11:00 PM)30.45 "Hg (Feb 12, 11:00 PM)
Low39 °F (Feb 21, 7:30 AM)18% (Feb 27, 5:00 PM)29.62 "Hg (Feb 21, 5:30 PM)
Average57 °F56%30.09 "Hg
* Reported Feb 12 6:00 PM — Feb 27 6:00 PM, Alicante, Weather by CustomWeather, © 2015

Note: Actual official high and low records may vary slightly from our data, if they occured in-between our weather recording intervals... More about our weather records

Advertising

Alicante weather history for previous 24 hours

 ConditionsComfort  
Time TempWeatherWind HumidityBarometerVisibility
6:00 PM
Fri, Feb 27
70 °FPassing clouds.10 mph18%30.04 "HgN/A
5:30 PM70 °FPassing clouds.15 mph18%30.04 "HgN/A
5:00 PM70 °FPassing clouds.18 mph18%30.04 "HgN/A
4:30 PM70 °FPassing clouds.20 mph20%30.01 "HgN/A
4:00 PM70 °FPassing clouds.15 mph20%30.01 "HgN/A
3:30 PM70 °FPassing clouds.18 mph20%30.01 "HgN/A
3:00 PM70 °FPassing clouds.21 mph20%30.01 "HgN/A
2:30 PM70 °FPassing clouds.21 mph20%30.01 "HgN/A
2:00 PM70 °FPassing clouds.23 mph20%30.04 "HgN/A
1:30 PM70 °FPassing clouds.24 mph21%30.04 "HgN/A
1:00 PM70 °FPassing clouds.29 mph25%30.04 "HgN/A
12:30 PM70 °FPassing clouds.18 mph27%30.04 "HgN/A
12:00 PM68 °FPassing clouds.14 mph30%30.04 "HgN/A
11:30 AM64 °FPassing clouds.14 mph43%30.07 "HgN/A
11:00 AM64 °FPassing clouds.18 mph46%30.07 "HgN/A
10:30 AM64 °FPassing clouds.16 mph43%30.07 "HgN/A
10:00 AM64 °FPassing clouds.14 mph43%30.04 "HgN/A
9:30 AM63 °FPassing clouds.9 mph45%30.04 "HgN/A
9:00 AM61 °FPassing clouds.13 mph48%30.04 "HgN/A
8:30 AM59 °FPassing clouds.16 mph51%30.04 "HgN/A
8:00 AM61 °FSunny.21 mph48%30.04 "Hg10 mi
7:30 AM61 °FPassing clouds.9 mph48%30.04 "HgN/A
7:00 AM61 °FPassing clouds.6 mph48%30.04 "HgN/A
6:30 AM61 °FPassing clouds.17 mph48%30.01 "HgN/A
6:00 AM61 °FPassing clouds.23 mph48%30.01 "HgN/A
5:30 AM61 °FPassing clouds.25 mph45%30.01 "HgN/A
5:00 AM63 °FPassing clouds.22 mph42%30.01 "HgN/A
4:30 AM61 °FPassing clouds.15 mph48%30.01 "HgN/A
4:00 AM61 °FPassing clouds.16 mph48%30.04 "HgN/A
3:30 AM63 °FPassing clouds.10 mph42%30.04 "HgN/A
3:00 AM59 °FPassing clouds.9 mph48%30.04 "HgN/A
2:30 AM61 °FPassing clouds.10 mph45%30.07 "HgN/A
2:00 AM61 °FPassing clouds.14 mph45%30.07 "HgN/A
1:30 AM61 °FPassing clouds.13 mph45%30.04 "HgN/A
1:00 AM63 °FPassing clouds.12 mph42%30.04 "HgN/A
12:30 AM63 °FPassing clouds.8 mph45%30.04 "HgN/A
12:00 AM63 °FPassing clouds.13 mph45%30.04 "HgN/A
11:30 PM
Thu, Feb 26
64 °FPassing clouds.18 mph43%30.04 "HgN/A
11:00 PM64 °FPassing clouds.13 mph46%30.04 "HgN/A
10:30 PM64 °FPassing clouds.12 mph46%30.07 "HgN/A
10:00 PM64 °FPassing clouds.8 mph46%30.07 "HgN/A
9:30 PM59 °FPassing clouds.2 mph59%30.07 "HgN/A
9:00 PM59 °FPassing clouds.3 mph63%30.07 "HgN/A
8:30 PM59 °FPassing clouds.3 mph63%30.07 "HgN/A
8:00 PM59 °FPassing clouds.No wind63%30.07 "HgN/A
7:30 PM59 °FPassing clouds.7 mph72%30.07 "HgN/A
7:00 PM61 °FPassing clouds.5 mph59%30.07 "HgN/A
Weather by CustomWeather, © 2015

See weather overviewHow to use our weather pages